Data supplied by UK-AIR on 29/5/2012
All Data GMT hour ending 
Status: R =Ratified P=Provisional,P*=As supplied
,,Wigan Centre,,,,,,,,,,,,,,,,,,,,,,,
Date,time,"Nitric oxide",status,unit,"Nitrogen dioxide",status,unit,"Nitrogen oxides as nitrogen dioxide",status,unit,"Non-volatile PM<sub>2.5</sub> (Hourly measured)",status,unit,"Ozone",status,unit,"PM<sub>2.5</sub> particulate matter (Hourly measured)",status,unit,"Volatile PM<sub>2.5</sub> (Hourly measured)",status,unit
 
01-01-2011,01:00,0,R,ugm-3,10,R,ugm-3,10,R,ugm-3,,,,54,R,ugm-3,,,,,,
01-01-2011,02:00,1,R,ugm-3,8,R,ugm-3,10,R,ugm-3,,,,54,R,ugm-3,,,,,,
01-01-2011,03:00,0,R,ugm-3,8,R,ugm-3,8,R,ugm-3,,,,58,R,ugm-3,,,,,,
01-01-2011,04:00,0,R,ugm-3,6,R,ugm-3,6,R,ugm-3,,,,60,R,ugm-3,,,,,,
01-01-2011,05:00,0,R,ugm-3,6,R,ugm-3,6,R,ugm-3,,,,56,R,ugm-3,,,,,,
01-01-2011,06:00,0,R,ugm-3,6,R,ugm-3,6,R,ugm-3,,,,56,R,ugm-3,,,,,,
01-01-2011,07:00,0,R,ugm-3,6,R,ugm-3,6,R,ugm-3,,,,52,R,ugm-3,,,,,,
01-01-2011,08:00,1,R,ugm-3,10,R,ugm-3,11,R,ugm-3,,,,46,R,ugm-3,,,,,,
01-01-2011,09:00,3,R,ugm-3,13,R,ugm-3,17,R,ugm-3,,,,40,R,ugm-3,,,,,,
01-01-2011,10:00,3,R,ugm-3,13,R,ugm-3,17,R,ugm-3,,,,38,R,ugm-3,,,,,,
01-01-2011,11:00,3,R,ugm-3,15,R,ugm-3,19,R,ugm-3,,,,38,R,ugm-3,,,,,,
01-01-2011,12:00,1,R,ugm-3,11,R,ugm-3,13,R,ugm-3,,,,54,R,ugm-3,,,,,,
01-01-2011,13:00,1,R,ugm-3,13,R,ugm-3,15,R,ugm-3,,,,58,R,ugm-3,,,,,,
01-01-2011,14:00,1,R,ugm-3,13,R,ugm-3,15,R,ugm-3,,,,58,R,ugm-3,,,,,,
01-01-2011,15:00,1,R,ugm-3,11,R,ugm-3,13,R,ugm-3,,,,58,R,ugm-3,,,,,,
01-01-2011,16:00,1,R,ugm-3,8,R,ugm-3,10,R,ugm-3,,,,62,R,ugm-3,,,,,,
01-01-2011,17:00,1,R,ugm-3,10,R,ugm-3,11,R,ugm-3,,,,58,R,ugm-3,,,,,,
01-01-2011,18:00,1,R,ugm-3,10,R,ugm-3,11,R,ugm-3,,,,58,R,ugm-3,,,,,,
01-01-2011,19:00,1,R,ugm-3,10,R,ugm-3,11,R,ugm-3,,,,60,R,ugm-3,,,,,,
01-01-2011,20:00,1,R,ugm-3,10,R,ugm-3,11,R,ugm-3,,,,58,R,ugm-3,,,,,,
01-01-2011,21:00,1,R,ugm-3,19,R,ugm-3,21,R,ugm-3,,,,46,R,ugm-3,,,,,,
01-01-2011,22:00,1,R,ugm-3,32,R,ugm-3,34,R,ugm-3,,,,28,R,ugm-3,,,,,,
01-01-2011,23:00,5,R,ugm-3,36,R,ugm-3,44,R,ugm-3,,,,20,R,ugm-3,,,,,,
01-01-2011,24:00,1,R,ugm-3,19,R,ugm-3,21,R,ugm-3,,,,40,R,ugm-3,,,,,,
02-01-2011,01:00,1,R,ugm-3,13,R,ugm-3,15,R,ugm-3,,,,48,R,ugm-3,,,,,,
02-01-2011,02:00,0,R,ugm-3,8,R,ugm-3,8,R,ugm-3,,,,66,R,ugm-3,,,,,,
02-01-2011,03:00,0,R,ugm-3,8,R,ugm-3,8,R,ugm-3,,,,62,R,ugm-3,,,,,,
02-01-2011,04:00,0,R,ugm-3,11,R,ugm-3,11,R,ugm-3,,,,54,R,ugm-3,,,,,,
02-01-2011,05:00,1,R,ugm-3,15,R,ugm-3,17,R,ugm-3,,,,44,R,ugm-3,,,,,,
02-01-2011,06:00,1,R,ugm-3,11,R,ugm-3,13,R,ugm-3,,,,48,R,ugm-3,,,,,,
02-01-2011,07:00,1,R,ugm-3,21,R,ugm-3,23,R,ugm-3,,,,44,R,ugm-3,,,,,,
02-01-2011,08:00,1,R,ugm-3,25,R,ugm-3,27,R,ugm-3,,,,38,R,ugm-3,,,,,,
02-01-2011,09:00,1,R,ugm-3,19,R,ugm-3,21,R,ugm-3,,,,44,R,ugm-3,,,,,,
02-01-2011,10:00,13,R,ugm-3,44,R,ugm-3,63,R,ugm-3,,,,20,R,ugm-3,,,,,,
02-01-2011,11:00,11,R,ugm-3,44,R,ugm-3,61,R,ugm-3,,,,24,R,ugm-3,,,,,,
02-01-2011,12:00,9,R,ugm-3,42,R,ugm-3,55,R,ugm-3,,,,26,R,ugm-3,,,,,,
02-01-2011,13:00,9,R,ugm-3,38,R,ugm-3,52,R,ugm-3,,,,36,R,ugm-3,,,,,,
02-01-2011,14:00,4,R,ugm-3,19,R,ugm-3,25,R,ugm-3,,,,58,R,ugm-3,,,,,,
02-01-2011,15:00,3,R,ugm-3,23,R,ugm-3,27,R,ugm-3,,,,50,R,ugm-3,,,,,,
02-01-2011,16:00,4,R,ugm-3,29,R,ugm-3,34,R,ugm-3,,,,48,R,ugm-3,,,,,,
02-01-2011,17:00,3,R,ugm-3,29,R,ugm-3,32,R,ugm-3,,,,46,R,ugm-3,,,,,,
02-01-2011,18:00,3,R,ugm-3,32,R,ugm-3,36,R,ugm-3,,,,44,R,ugm-3,,,,,,
02-01-2011,19:00,4,R,ugm-3,36,R,ugm-3,42,R,ugm-3,,,,40,R,ugm-3,,,,,,
02-01-2011,20:00,4,R,ugm-3,36,R,ugm-3,42,R,ugm-3,,,,38,R,ugm-3,,,,,,
02-01-2011,21:00,3,R,ugm-3,44,R,ugm-3,48,R,ugm-3,,,,28,R,ugm-3,,,,,,
02-01-2011,22:00,5,R,ugm-3,52,R,ugm-3,59,R,ugm-3,,,,16,R,ugm-3,,,,,,
02-01-2011,23:00,3,R,ugm-3,38,R,ugm-3,42,R,ugm-3,,,,38,R,ugm-3,,,,,,
02-01-2011,24:00,3,R,ugm-3,36,R,ugm-3,40,R,ugm-3,,,,40,R,ugm-3,,,,,,
03-01-2011,01:00,1,R,ugm-3,38,R,ugm-3,40,R,ugm-3,,,,34,R,ugm-3,,,,,,
03-01-2011,02:00,0,R,ugm-3,38,R,ugm-3,38,R,ugm-3,,,,30,R,ugm-3,,,,,,
03-01-2011,03:00,0,R,ugm-3,31,R,ugm-3,31,R,ugm-3,,,,30,R,ugm-3,,,,,,
03-01-2011,04:00,0,R,ugm-3,27,R,ugm-3,27,R,ugm-3,,,,28,R,ugm-3,,,,,,
03-01-2011,05:00,0,R,ugm-3,23,R,ugm-3,23,R,ugm-3,,,,28,R,ugm-3,,,,,,
03-01-2011,06:00,0,R,ugm-3,25,R,ugm-3,25,R,ugm-3,,,,24,R,ugm-3,,,,,,
03-01-2011,07:00,6,R,ugm-3,44,R,ugm-3,53,R,ugm-3,,,,8,R,ugm-3,,,,,,
03-01-2011,08:00,26,R,ugm-3,53,R,ugm-3,94,R,ugm-3,,,,2,R,ugm-3,,,,,,
03-01-2011,09:00,70,R,ugm-3,55,R,ugm-3,162,R,ugm-3,,,,2,R,ugm-3,,,,,,
03-01-2011,10:00,45,R,ugm-3,63,R,ugm-3,132,R,ugm-3,,,,4,R,ugm-3,,,,,,
03-01-2011,11:00,36,R,ugm-3,65,R,ugm-3,120,R,ugm-3,,,,6,R,ugm-3,,,,,,
03-01-2011,12:00,33,R,ugm-3,67,R,ugm-3,117,R,ugm-3,,,,8,R,ugm-3,,,,,,
03-01-2011,13:00,20,R,ugm-3,65,R,ugm-3,96,R,ugm-3,,,,10,R,ugm-3,,,,,,
03-01-2011,14:00,11,R,ugm-3,63,R,ugm-3,80,R,ugm-3,,,,16,R,ugm-3,,,,,,
03-01-2011,15:00,13,R,ugm-3,71,R,ugm-3,90,R,ugm-3,,,,14,R,ugm-3,,,,,,
03-01-2011,16:00,16,R,ugm-3,73,R,ugm-3,97,R,ugm-3,,,,10,R,ugm-3,,,,,,
03-01-2011,17:00,30,R,ugm-3,78,R,ugm-3,124,R,ugm-3,,,,2,R,ugm-3,,,,,,
03-01-2011,18:00,40,R,ugm-3,76,R,ugm-3,138,R,ugm-3,,,,2,R,ugm-3,,,,,,
03-01-2011,19:00,51,R,ugm-3,84,R,ugm-3,162,R,ugm-3,,,,2,R,ugm-3,,,,,,
03-01-2011,20:00,55,R,ugm-3,82,R,ugm-3,166,R,ugm-3,,,,4,R,ugm-3,,,,,,
03-01-2011,21:00,44,R,ugm-3,74,R,ugm-3,141,R,ugm-3,,,,2,R,ugm-3,,,,,,
03-01-2011,22:00,29,R,ugm-3,69,R,ugm-3,113,R,ugm-3,,,,2,R,ugm-3,,,,,,
03-01-2011,23:00,39,R,ugm-3,69,R,ugm-3,128,R,ugm-3,,,,2,R,ugm-3,,,,,,
03-01-2011,24:00,29,R,ugm-3,65,R,ugm-3,109,R,ugm-3,,,,2,R,ugm-3,,,,,,
04-01-2011,01:00,6,R,ugm-3,55,R,ugm-3,65,R,ugm-3,,,,6,R,ugm-3,,,,,,
04-01-2011,02:00,3,R,ugm-3,48,R,ugm-3,52,R,ugm-3,,,,12,R,ugm-3,,,,,,
04-01-2011,03:00,3,R,ugm-3,42,R,ugm-3,46,R,ugm-3,,,,16,R,ugm-3,,,,,,
04-01-2011,04:00,3,R,ugm-3,34,R,ugm-3,38,R,ugm-3,,,,20,R,ugm-3,,,,,,
04-01-2011,05:00,3,R,ugm-3,34,R,ugm-3,38,R,ugm-3,,,,22,R,ugm-3,,,,,,
04-01-2011,06:00,4,R,ugm-3,38,R,ugm-3,44,R,ugm-3,,,,18,R,ugm-3,,,,,,
04-01-2011,07:00,8,R,ugm-3,48,R,ugm-3,59,R,ugm-3,,,,10,R,ugm-3,,,,,,
04-01-2011,08:00,38,R,ugm-3,59,R,ugm-3,117,R,ugm-3,,,,2,R,ugm-3,,,,,,
04-01-2011,09:00,43,R,ugm-3,61,R,ugm-3,126,R,ugm-3,,,,0,R,ugm-3,,,,,,
04-01-2011,10:00,50,R,ugm-3,59,R,ugm-3,136,R,ugm-3,,,,4,R,ugm-3,,,,,,
04-01-2011,11:00,71,R,ugm-3,59,R,ugm-3,168,R,ugm-3,,,,6,R,ugm-3,,,,,,
04-01-2011,12:00,66,R,ugm-3,55,R,ugm-3,157,R,ugm-3,,,,8,R,ugm-3,,,,,,
04-01-2011,13:00,60,R,ugm-3,57,R,ugm-3,149,R,ugm-3,,,,4,R,ugm-3,,,,,,
04-01-2011,14:00,61,R,ugm-3,55,R,ugm-3,149,R,ugm-3,,,,4,R,ugm-3,,,,,,
04-01-2011,15:00,66,R,ugm-3,61,R,ugm-3,162,R,ugm-3,,,,2,R,ugm-3,,,,,,
04-01-2011,16:00,78,R,ugm-3,63,R,ugm-3,181,R,ugm-3,,,,2,R,ugm-3,,,,,,
04-01-2011,17:00,78,R,ugm-3,67,R,ugm-3,185,R,ugm-3,,,,2,R,ugm-3,,,,,,
04-01-2011,18:00,73,R,ugm-3,69,R,ugm-3,180,R,ugm-3,,,,2,R,ugm-3,,,,,,
04-01-2011,19:00,30,R,ugm-3,61,R,ugm-3,107,R,ugm-3,,,,16,R,ugm-3,,,,,,
04-01-2011,20:00,10,R,ugm-3,55,R,ugm-3,71,R,ugm-3,,,,16,R,ugm-3,,,,,,
04-01-2011,21:00,24,R,ugm-3,61,R,ugm-3,97,R,ugm-3,,,,4,R,ugm-3,,,,,,
04-01-2011,22:00,6,R,ugm-3,48,R,ugm-3,57,R,ugm-3,,,,12,R,ugm-3,,,,,,
04-01-2011,23:00,8,R,ugm-3,42,R,ugm-3,53,R,ugm-3,,,,16,R,ugm-3,,,,,,
04-01-2011,24:00,6,R,ugm-3,36,R,ugm-3,46,R,ugm-3,,,,24,R,ugm-3,,,,,,
05-01-2011,01:00,1,R,ugm-3,15,R,ugm-3,17,R,ugm-3,,,,48,R,ugm-3,,,,,,
05-01-2011,02:00,1,R,ugm-3,15,R,ugm-3,17,R,ugm-3,,,,54,R,ugm-3,,,,,,
05-01-2011,03:00,1,R,ugm-3,13,R,ugm-3,15,R,ugm-3,,,,54,R,ugm-3,,,,,,
05-01-2011,04:00,0,R,ugm-3,13,R,ugm-3,13,R,ugm-3,,,,62,R,ugm-3,,,,,,
05-01-2011,05:00,3,R,ugm-3,15,R,ugm-3,19,R,ugm-3,,,,60,R,ugm-3,,,,,,
05-01-2011,06:00,3,R,ugm-3,13,R,ugm-3,17,R,ugm-3,,,,60,R,ugm-3,,,,,,
05-01-2011,07:00,1,R,ugm-3,19,R,ugm-3,21,R,ugm-3,,,,62,R,ugm-3,,,,,,
05-01-2011,08:00,5,R,ugm-3,53,R,ugm-3,61,R,ugm-3,,,,32,R,ugm-3,,,,,,
05-01-2011,09:00,16,R,ugm-3,71,R,ugm-3,96,R,ugm-3,,,,18,R,ugm-3,,,,,,
05-01-2011,10:00,41,R,ugm-3,80,R,ugm-3,143,R,ugm-3,,,,16,R,ugm-3,,,,,,
05-01-2011,11:00,33,R,ugm-3,78,R,ugm-3,128,R,ugm-3,,,,12,R,ugm-3,,,,,,
05-01-2011,12:00,26,R,ugm-3,67,R,ugm-3,107,R,ugm-3,,,,16,R,ugm-3,,,,,,
05-01-2011,13:00,35,R,ugm-3,69,R,ugm-3,122,R,ugm-3,,,,14,R,ugm-3,,,,,,
05-01-2011,14:00,11,R,ugm-3,50,R,ugm-3,67,R,ugm-3,,,,30,R,ugm-3,,,,,,
05-01-2011,15:00,14,R,ugm-3,50,R,ugm-3,71,R,ugm-3,,,,28,R,ugm-3,,,,,,
05-01-2011,16:00,10,R,ugm-3,57,R,ugm-3,73,R,ugm-3,,,,28,R,ugm-3,,,,,,
05-01-2011,17:00,16,R,ugm-3,73,R,ugm-3,97,R,ugm-3,,,,12,R,ugm-3,,,,,,
05-01-2011,18:00,11,R,ugm-3,65,R,ugm-3,82,R,ugm-3,,,,18,R,ugm-3,,,,,,
05-01-2011,19:00,5,R,ugm-3,48,R,ugm-3,55,R,ugm-3,,,,34,R,ugm-3,,,,,,
05-01-2011,20:00,3,R,ugm-3,38,R,ugm-3,42,R,ugm-3,,,,42,R,ugm-3,,,,,,
05-01-2011,21:00,3,R,ugm-3,13,R,ugm-3,17,R,ugm-3,,,,60,R,ugm-3,,,,,,
05-01-2011,22:00,3,R,ugm-3,23,R,ugm-3,27,R,ugm-3,,,,52,R,ugm-3,,,,,,
05-01-2011,23:00,1,R,ugm-3,15,R,ugm-3,17,R,ugm-3,,,,62,R,ugm-3,,,,,,
05-01-2011,24:00,1,R,ugm-3,17,R,ugm-3,19,R,ugm-3,,,,56,R,ugm-3,,,,,,
06-01-2011,01:00,3,R,ugm-3,17,R,ugm-3,21,R,ugm-3,,,,54,R,ugm-3,,,,,,
06-01-2011,02:00,1,R,ugm-3,13,R,ugm-3,15,R,ugm-3,,,,56,R,ugm-3,,,,,,
06-01-2011,03:00,1,R,ugm-3,27,R,ugm-3,29,R,ugm-3,,,,26,R,ugm-3,,,,,,
06-01-2011,04:00,1,R,ugm-3,29,R,ugm-3,31,R,ugm-3,,,,16,R,ugm-3,,,,,,
06-01-2011,05:00,9,R,ugm-3,42,R,ugm-3,55,R,ugm-3,,,,4,R,ugm-3,,,,,,
06-01-2011,06:00,14,R,ugm-3,44,R,ugm-3,65,R,ugm-3,,,,2,R,ugm-3,,,,,,
06-01-2011,07:00,19,R,ugm-3,53,R,ugm-3,82,R,ugm-3,,,,6,R,ugm-3,,,,,,
06-01-2011,08:00,8,R,ugm-3,59,R,ugm-3,71,R,ugm-3,,,,10,R,ugm-3,,,,,,
06-01-2011,09:00,29,R,ugm-3,71,R,ugm-3,115,R,ugm-3,,,,2,R,ugm-3,,,,,,
06-01-2011,10:00,99,R,ugm-3,80,R,ugm-3,231,R,ugm-3,,,,2,R,ugm-3,,,,,,
06-01-2011,11:00,109,R,ugm-3,82,R,ugm-3,248,R,ugm-3,,,,4,R,ugm-3,,,,,,
06-01-2011,12:00,110,R,ugm-3,84,R,ugm-3,252,R,ugm-3,,,,4,R,ugm-3,,,,,,
06-01-2011,13:00,99,R,ugm-3,80,R,ugm-3,231,R,ugm-3,,,,6,R,ugm-3,,,,,,
06-01-2011,14:00,160,R,ugm-3,88,R,ugm-3,332,R,ugm-3,,,,6,R,ugm-3,,,,,,
06-01-2011,15:00,61,R,ugm-3,57,R,ugm-3,151,R,ugm-3,,,,18,R,ugm-3,,,,,,
06-01-2011,16:00,3,R,ugm-3,19,R,ugm-3,23,R,ugm-3,,,,46,R,ugm-3,,,,,,
06-01-2011,17:00,5,R,ugm-3,32,R,ugm-3,40,R,ugm-3,,,,32,R,ugm-3,,,,,,
06-01-2011,18:00,4,R,ugm-3,40,R,ugm-3,46,R,ugm-3,,,,22,R,ugm-3,,,,,,
06-01-2011,19:00,4,R,ugm-3,32,R,ugm-3,38,R,ugm-3,,,,30,R,ugm-3,,,,,,
06-01-2011,20:00,4,R,ugm-3,42,R,ugm-3,48,R,ugm-3,,,,26,R,ugm-3,,,,,,
06-01-2011,21:00,5,R,ugm-3,42,R,ugm-3,50,R,ugm-3,,,,20,R,ugm-3,,,,,,
06-01-2011,22:00,16,R,ugm-3,61,R,ugm-3,86,R,ugm-3,,,,4,R,ugm-3,,,,,,
06-01-2011,23:00,41,R,ugm-3,59,R,ugm-3,122,R,ugm-3,,,,2,R,ugm-3,,,,,,
06-01-2011,24:00,46,R,ugm-3,55,R,ugm-3,126,R,ugm-3,,,,2,R,ugm-3,,,,,,
07-01-2011,01:00,36,R,ugm-3,53,R,ugm-3,109,R,ugm-3,,,,2,R,ugm-3,,,,,,
07-01-2011,02:00,33,R,ugm-3,50,R,ugm-3,99,R,ugm-3,,,,2,R,ugm-3,,,,,,
07-01-2011,03:00,50,R,ugm-3,50,R,ugm-3,126,R,ugm-3,,,,2,R,ugm-3,,,,,,
07-01-2011,04:00,44,R,ugm-3,50,R,ugm-3,117,R,ugm-3,,,,2,R,ugm-3,,,,,,
07-01-2011,05:00,14,R,ugm-3,36,R,ugm-3,57,R,ugm-3,,,,24,R,ugm-3,,,,,,
07-01-2011,06:00,1,R,ugm-3,29,R,ugm-3,31,R,ugm-3,,,,34,R,ugm-3,,,,,,
07-01-2011,07:00,8,R,ugm-3,46,R,ugm-3,57,R,ugm-3,,,,18,R,ugm-3,,,,,,
07-01-2011,08:00,11,R,ugm-3,59,R,ugm-3,76,R,ugm-3,,,,12,R,ugm-3,,,,,,
07-01-2011,09:00,19,R,ugm-3,65,R,ugm-3,94,R,ugm-3,,,,8,R,ugm-3,,,,,,
07-01-2011,10:00,20,R,ugm-3,67,R,ugm-3,97,R,ugm-3,,,,8,R,ugm-3,,,,,,
07-01-2011,11:00,23,R,ugm-3,61,R,ugm-3,96,R,ugm-3,,,,10,R,ugm-3,,,,,,
07-01-2011,12:00,24,R,ugm-3,57,R,ugm-3,94,R,ugm-3,,,,16,R,ugm-3,,,,,,
07-01-2011,13:00,26,R,ugm-3,61,R,ugm-3,101,R,ugm-3,,,,12,R,ugm-3,,,,,,
07-01-2011,14:00,26,R,ugm-3,65,R,ugm-3,105,R,ugm-3,,,,8,R,ugm-3,,,,,,
07-01-2011,15:00,26,R,ugm-3,69,R,ugm-3,109,R,ugm-3,,,,8,R,ugm-3,,,,,,
07-01-2011,16:00,20,R,ugm-3,69,R,ugm-3,99,R,ugm-3,,,,4,R,ugm-3,,,,,,
07-01-2011,17:00,19,R,ugm-3,67,R,ugm-3,96,R,ugm-3,,,,4,R,ugm-3,,,,,,
07-01-2011,18:00,23,R,ugm-3,69,R,ugm-3,103,R,ugm-3,,,,2,R,ugm-3,,,,,,
07-01-2011,19:00,20,R,ugm-3,65,R,ugm-3,96,R,ugm-3,,,,2,R,ugm-3,,,,,,
07-01-2011,20:00,18,R,ugm-3,63,R,ugm-3,90,R,ugm-3,,,,2,R,ugm-3,,,,,,
07-01-2011,21:00,21,R,ugm-3,61,R,ugm-3,94,R,ugm-3,,,,0,R,ugm-3,,,,,,
07-01-2011,22:00,34,R,ugm-3,61,R,ugm-3,113,R,ugm-3,,,,0,R,ugm-3,,,,,,
07-01-2011,23:00,33,R,ugm-3,57,R,ugm-3,107,R,ugm-3,,,,0,R,ugm-3,,,,,,
07-01-2011,24:00,11,R,ugm-3,55,R,ugm-3,73,R,ugm-3,,,,4,R,ugm-3,,,,,,
08-01-2011,01:00,0,R,ugm-3,36,R,ugm-3,36,R,ugm-3,,,,18,R,ugm-3,,,,,,
08-01-2011,02:00,0,R,ugm-3,34,R,ugm-3,34,R,ugm-3,,,,24,R,ugm-3,,,,,,
08-01-2011,03:00,0,R,ugm-3,31,R,ugm-3,31,R,ugm-3,,,,30,R,ugm-3,,,,,,
08-01-2011,04:00,0,R,ugm-3,27,R,ugm-3,27,R,ugm-3,,,,34,R,ugm-3,,,,,,
08-01-2011,05:00,0,R,ugm-3,36,R,ugm-3,36,R,ugm-3,,,,26,R,ugm-3,,,,,,
08-01-2011,06:00,4,R,ugm-3,48,R,ugm-3,53,R,ugm-3,,,,12,R,ugm-3,,,,,,
08-01-2011,07:00,1,R,ugm-3,31,R,ugm-3,32,R,ugm-3,,,,22,R,ugm-3,,,,,,
08-01-2011,08:00,1,R,ugm-3,15,R,ugm-3,17,R,ugm-3,,,,40,R,ugm-3,,,,,,
08-01-2011,09:00,1,R,ugm-3,11,R,ugm-3,13,R,ugm-3,,,,46,R,ugm-3,,,,,,
08-01-2011,10:00,1,R,ugm-3,13,R,ugm-3,15,R,ugm-3,,,,54,R,ugm-3,,,,,,
08-01-2011,11:00,1,R,ugm-3,17,R,ugm-3,19,R,ugm-3,,,,52,R,ugm-3,,,,,,
08-01-2011,12:00,1,R,ugm-3,13,R,ugm-3,15,R,ugm-3,,,,62,R,ugm-3,,,,,,
08-01-2011,13:00,1,R,ugm-3,13,R,ugm-3,15,R,ugm-3,,,,64,R,ugm-3,,,,,,
08-01-2011,14:00,1,R,ugm-3,15,R,ugm-3,17,R,ugm-3,,,,60,R,ugm-3,,,,,,
08-01-2011,15:00,1,R,ugm-3,13,R,ugm-3,15,R,ugm-3,,,,64,R,ugm-3,,,,,,
08-01-2011,16:00,1,R,ugm-3,25,R,ugm-3,27,R,ugm-3,,,,62,R,ugm-3,,,,,,
08-01-2011,17:00,3,R,ugm-3,48,R,ugm-3,52,R,ugm-3,,,,38,R,ugm-3,,,,,,
08-01-2011,18:00,1,R,ugm-3,40,R,ugm-3,42,R,ugm-3,,,,46,R,ugm-3,,,,,,
08-01-2011,19:00,3,R,ugm-3,46,R,ugm-3,50,R,ugm-3,,,,38,R,ugm-3,,,,,,
08-01-2011,20:00,1,R,ugm-3,40,R,ugm-3,42,R,ugm-3,,,,38,R,ugm-3,,,,,,
08-01-2011,21:00,0,R,ugm-3,29,R,ugm-3,29,R,ugm-3,,,,44,R,ugm-3,,,,,,
08-01-2011,22:00,0,R,ugm-3,31,R,ugm-3,31,R,ugm-3,,,,40,R,ugm-3,,,,,,
08-01-2011,23:00,4,R,ugm-3,38,R,ugm-3,44,R,ugm-3,,,,30,R,ugm-3,,,,,,
08-01-2011,24:00,0,R,ugm-3,15,R,ugm-3,15,R,ugm-3,,,,60,R,ugm-3,,,,,,
09-01-2011,01:00,0,R,ugm-3,2,R,ugm-3,2,R,ugm-3,,,,74,R,ugm-3,,,,,,
09-01-2011,02:00,0,R,ugm-3,2,R,ugm-3,2,R,ugm-3,,,,80,R,ugm-3,,,,,,
09-01-2011,03:00,0,R,ugm-3,2,R,ugm-3,2,R,ugm-3,,,,78,R,ugm-3,,,,,,
09-01-2011,04:00,0,R,ugm-3,4,R,ugm-3,4,R,ugm-3,,,,72,R,ugm-3,,,,,,
09-01-2011,05:00,0,R,ugm-3,8,R,ugm-3,8,R,ugm-3,,,,66,R,ugm-3,,,,,,
09-01-2011,06:00,0,R,ugm-3,4,R,ugm-3,4,R,ugm-3,,,,70,R,ugm-3,,,,,,
09-01-2011,07:00,0,R,ugm-3,4,R,ugm-3,4,R,ugm-3,,,,66,R,ugm-3,,,,,,
09-01-2011,08:00,0,R,ugm-3,4,R,ugm-3,4,R,ugm-3,,,,66,R,ugm-3,,,,,,
09-01-2011,09:00,1,R,ugm-3,4,R,ugm-3,6,R,ugm-3,,,,66,R,ugm-3,,,,,,
09-01-2011,10:00,3,R,ugm-3,6,R,ugm-3,10,R,ugm-3,,,,64,R,ugm-3,,,,,,
09-01-2011,11:00,3,R,ugm-3,6,R,ugm-3,10,R,ugm-3,,,,62,R,ugm-3,,,,,,
09-01-2011,12:00,1,R,ugm-3,8,R,ugm-3,10,R,ugm-3,,,,60,R,ugm-3,,,,,,
09-01-2011,13:00,3,R,ugm-3,10,R,ugm-3,13,R,ugm-3,,,,58,R,ugm-3,,,,,,
09-01-2011,14:00,3,R,ugm-3,10,R,ugm-3,13,R,ugm-3,,,,58,R,ugm-3,,,,,,
09-01-2011,15:00,3,R,ugm-3,8,R,ugm-3,11,R,ugm-3,,,,58,R,ugm-3,,,,,,
09-01-2011,16:00,3,R,ugm-3,11,R,ugm-3,15,R,ugm-3,,,,52,R,ugm-3,,,,,,
09-01-2011,17:00,4,R,ugm-3,25,R,ugm-3,31,R,ugm-3,,,,40,R,ugm-3,,,,,,
09-01-2011,18:00,5,R,ugm-3,42,R,ugm-3,50,R,ugm-3,,,,22,R,ugm-3,,,,,,
09-01-2011,19:00,9,R,ugm-3,50,R,ugm-3,63,R,ugm-3,,,,8,R,ugm-3,,,,,,
09-01-2011,20:00,33,R,ugm-3,55,R,ugm-3,105,R,ugm-3,,,,0,R,ugm-3,,,,,,
09-01-2011,21:00,29,R,ugm-3,65,R,ugm-3,109,R,ugm-3,,,,0,R,ugm-3,,,,,,
09-01-2011,22:00,29,R,ugm-3,61,R,ugm-3,105,R,ugm-3,,,,0,R,ugm-3,,,,,,
09-01-2011,23:00,15,R,ugm-3,53,R,ugm-3,76,R,ugm-3,,,,4,R,ugm-3,,,,,,
09-01-2011,24:00,8,R,ugm-3,50,R,ugm-3,61,R,ugm-3,,,,6,R,ugm-3,,,,,,
10-01-2011,01:00,5,R,ugm-3,36,R,ugm-3,44,R,ugm-3,,,,12,R,ugm-3,,,,,,
10-01-2011,02:00,4,R,ugm-3,25,R,ugm-3,31,R,ugm-3,,,,22,R,ugm-3,,,,,,
10-01-2011,03:00,5,R,ugm-3,21,R,ugm-3,29,R,ugm-3,,,,28,R,ugm-3,,,,,,
10-01-2011,04:00,4,R,ugm-3,19,R,ugm-3,25,R,ugm-3,,,,32,R,ugm-3,,,,,,
10-01-2011,05:00,4,R,ugm-3,21,R,ugm-3,27,R,ugm-3,,,,32,R,ugm-3,,,,,,
10-01-2011,06:00,6,R,ugm-3,23,R,ugm-3,32,R,ugm-3,,,,32,R,ugm-3,,,,,,
10-01-2011,07:00,10,R,ugm-3,36,R,ugm-3,52,R,ugm-3,,,,22,R,ugm-3,,,,,,
10-01-2011,08:00,20,R,ugm-3,46,R,ugm-3,76,R,ugm-3,,,,14,R,ugm-3,,,,,,
10-01-2011,09:00,24,R,ugm-3,50,R,ugm-3,86,R,ugm-3,,,,16,R,ugm-3,,,,,,
10-01-2011,10:00,15,R,ugm-3,42,R,ugm-3,65,R,ugm-3,,,,20,R,ugm-3,,,,,,
10-01-2011,11:00,18,R,ugm-3,40,R,ugm-3,67,R,ugm-3,,,,22,R,ugm-3,,,,,,
10-01-2011,12:00,14,R,ugm-3,36,R,ugm-3,57,R,ugm-3,,,,26,R,ugm-3,,,,,,
10-01-2011,13:00,14,R,ugm-3,38,R,ugm-3,59,R,ugm-3,,,,28,R,ugm-3,,,,,,
10-01-2011,14:00,18,R,ugm-3,44,R,ugm-3,71,R,ugm-3,,,,24,R,ugm-3,,,,,,
10-01-2011,15:00,9,R,ugm-3,42,R,ugm-3,55,R,ugm-3,,,,30,R,ugm-3,,,,,,
10-01-2011,16:00,6,R,ugm-3,36,R,ugm-3,46,R,ugm-3,,,,38,R,ugm-3,,,,,,
10-01-2011,17:00,5,R,ugm-3,31,R,ugm-3,38,R,ugm-3,,,,46,R,ugm-3,,,,,,
10-01-2011,18:00,5,R,ugm-3,36,R,ugm-3,44,R,ugm-3,,,,40,R,ugm-3,,,,,,
10-01-2011,19:00,4,R,ugm-3,31,R,ugm-3,36,R,ugm-3,,,,46,R,ugm-3,,,,,,
10-01-2011,20:00,1,R,ugm-3,17,R,ugm-3,19,R,ugm-3,,,,54,R,ugm-3,,,,,,
10-01-2011,21:00,1,R,ugm-3,13,R,ugm-3,15,R,ugm-3,,,,58,R,ugm-3,,,,,,
10-01-2011,22:00,1,R,ugm-3,11,R,ugm-3,13,R,ugm-3,,,,58,R,ugm-3,,,,,,
10-01-2011,23:00,1,R,ugm-3,10,R,ugm-3,11,R,ugm-3,,,,60,R,ugm-3,,,,,,
10-01-2011,24:00,1,R,ugm-3,8,R,ugm-3,10,R,ugm-3,,,,60,R,ugm-3,,,,,,
11-01-2011,01:00,1,R,ugm-3,6,R,ugm-3,8,R,ugm-3,,,,60,R,ugm-3,,,,,,
11-01-2011,02:00,3,R,ugm-3,13,R,ugm-3,17,R,ugm-3,,,,46,R,ugm-3,,,,,,
11-01-2011,03:00,3,R,ugm-3,17,R,ugm-3,21,R,ugm-3,,,,46,R,ugm-3,,,,,,
11-01-2011,04:00,1,R,ugm-3,27,R,ugm-3,29,R,ugm-3,,,,30,R,ugm-3,,,,,,
11-01-2011,05:00,1,R,ugm-3,15,R,ugm-3,17,R,ugm-3,,,,46,R,ugm-3,,,,,,
11-01-2011,06:00,1,R,ugm-3,8,R,ugm-3,10,R,ugm-3,,,,52,R,ugm-3,,,,,,
11-01-2011,07:00,3,R,ugm-3,6,R,ugm-3,10,R,ugm-3,,,,52,R,ugm-3,,,,,,
11-01-2011,08:00,1,R,ugm-3,8,R,ugm-3,10,R,ugm-3,,,,48,R,ugm-3,,,,,,
11-01-2011,09:00,3,R,ugm-3,10,R,ugm-3,13,R,ugm-3,,,,44,R,ugm-3,,,,,,
11-01-2011,10:00,1,R,ugm-3,11,R,ugm-3,13,R,ugm-3,,,,50,R,ugm-3,,,,,,
11-01-2011,11:00,3,R,ugm-3,11,R,ugm-3,15,R,ugm-3,,,,50,R,ugm-3,,,,,,
11-01-2011,12:00,5,R,ugm-3,13,R,ugm-3,21,R,ugm-3,,,,48,R,ugm-3,,,,,,
11-01-2011,13:00,4,R,ugm-3,13,R,ugm-3,19,R,ugm-3,,,,50,R,ugm-3,,,,,,
11-01-2011,14:00,3,R,ugm-3,11,R,ugm-3,15,R,ugm-3,,,,54,R,ugm-3,,,,,,
11-01-2011,15:00,3,R,ugm-3,11,R,ugm-3,15,R,ugm-3,,,,56,R,ugm-3,,,,,,
11-01-2011,16:00,3,R,ugm-3,21,R,ugm-3,25,R,ugm-3,,,,46,R,ugm-3,,,,,,
11-01-2011,17:00,15,R,ugm-3,53,R,ugm-3,76,R,ugm-3,,,,14,R,ugm-3,,,,,,
11-01-2011,18:00,44,R,ugm-3,61,R,ugm-3,128,R,ugm-3,,,,2,R,ugm-3,,,,,,
11-01-2011,19:00,128,R,ugm-3,78,R,ugm-3,273,R,ugm-3,,,,2,R,ugm-3,,,,,,
11-01-2011,20:00,119,R,ugm-3,73,R,ugm-3,254,R,ugm-3,,,,2,R,ugm-3,,,,,,
11-01-2011,21:00,133,R,ugm-3,88,R,ugm-3,290,R,ugm-3,,,,2,R,ugm-3,,,,,,
11-01-2011,22:00,101,R,ugm-3,82,R,ugm-3,237,R,ugm-3,,,,4,R,ugm-3,,,,,,
11-01-2011,23:00,71,R,ugm-3,74,R,ugm-3,183,R,ugm-3,,,,2,R,ugm-3,,,,,,
11-01-2011,24:00,28,R,ugm-3,61,R,ugm-3,103,R,ugm-3,,,,2,R,ugm-3,,,,,,
12-01-2011,01:00,3,R,ugm-3,42,R,ugm-3,46,R,ugm-3,,,,6,R,ugm-3,,,,,,
12-01-2011,02:00,1,R,ugm-3,23,R,ugm-3,25,R,ugm-3,,,,30,R,ugm-3,,,,,,
12-01-2011,03:00,6,R,ugm-3,17,R,ugm-3,27,R,ugm-3,,,,44,R,ugm-3,,,,,,
12-01-2011,04:00,8,R,ugm-3,17,R,ugm-3,29,R,ugm-3,,,,46,R,ugm-3,,,,,,
12-01-2011,05:00,8,R,ugm-3,21,R,ugm-3,32,R,ugm-3,,,,40,R,ugm-3,,,,,,
12-01-2011,06:00,6,R,ugm-3,23,R,ugm-3,32,R,ugm-3,,,,38,R,ugm-3,,,,,,
12-01-2011,07:00,6,R,ugm-3,31,R,ugm-3,40,R,ugm-3,,,,28,R,ugm-3,,,,,,
12-01-2011,08:00,18,R,ugm-3,55,R,ugm-3,82,R,ugm-3,,,,8,R,ugm-3,,,,,,
12-01-2011,09:00,49,R,ugm-3,65,R,ugm-3,139,R,ugm-3,,,,2,R,ugm-3,,,,,,
12-01-2011,10:00,83,R,ugm-3,73,R,ugm-3,199,R,ugm-3,,,,2,R,ugm-3,,,,,,
12-01-2011,11:00,,,,,,,,,,,,,2,R,ugm-3,,,,,,
12-01-2011,12:00,160,R,ugm-3,82,R,ugm-3,327,R,ugm-3,,,,2,R,ugm-3,,,,,,
12-01-2011,13:00,133,R,ugm-3,76,R,ugm-3,279,R,ugm-3,,,,2,R,ugm-3,,,,,,
12-01-2011,14:00,23,R,ugm-3,52,R,ugm-3,86,R,ugm-3,,,,14,R,ugm-3,,,,,,
12-01-2011,15:00,14,R,ugm-3,50,R,ugm-3,71,R,ugm-3,,,,10,R,ugm-3,,,,,,
12-01-2011,16:00,35,R,ugm-3,59,R,ugm-3,113,R,ugm-3,,,,2,R,ugm-3,,,,,,
12-01-2011,17:00,46,R,ugm-3,65,R,ugm-3,136,R,ugm-3,,,,2,R,ugm-3,,,,,,
12-01-2011,18:00,118,R,ugm-3,69,R,ugm-3,248,R,ugm-3,,,,2,R,ugm-3,,,,,,
12-01-2011,19:00,76,R,ugm-3,71,R,ugm-3,187,R,ugm-3,,,,0,R,ugm-3,,,,,,
12-01-2011,20:00,35,R,ugm-3,69,R,ugm-3,122,R,ugm-3,,,,0,R,ugm-3,,,,,,
12-01-2011,21:00,39,R,ugm-3,63,R,ugm-3,122,R,ugm-3,,,,0,R,ugm-3,,,,,,
12-01-2011,22:00,30,R,ugm-3,59,R,ugm-3,105,R,ugm-3,,,,4,R,ugm-3,,,,,,
12-01-2011,23:00,14,R,ugm-3,52,R,ugm-3,73,R,ugm-3,,,,2,R,ugm-3,,,,,,
12-01-2011,24:00,6,R,ugm-3,44,R,ugm-3,53,R,ugm-3,,,,4,R,ugm-3,,,,,,
13-01-2011,01:00,3,R,ugm-3,34,R,ugm-3,38,R,ugm-3,,,,12,R,ugm-3,,,,,,
13-01-2011,02:00,1,R,ugm-3,25,R,ugm-3,27,R,ugm-3,,,,18,R,ugm-3,,,,,,
13-01-2011,03:00,5,R,ugm-3,27,R,ugm-3,34,R,ugm-3,,,,18,R,ugm-3,,,,,,
13-01-2011,04:00,3,R,ugm-3,25,R,ugm-3,29,R,ugm-3,,,,18,R,ugm-3,,,,,,
13-01-2011,05:00,8,R,ugm-3,31,R,ugm-3,42,R,ugm-3,,,,16,R,ugm-3,,,,,,
13-01-2011,06:00,6,R,ugm-3,34,R,ugm-3,44,R,ugm-3,,,,14,R,ugm-3,,,,,,
13-01-2011,07:00,19,R,ugm-3,50,R,ugm-3,78,R,ugm-3,,,,4,R,ugm-3,,,,,,
13-01-2011,08:00,63,R,ugm-3,61,R,ugm-3,157,R,ugm-3,,,,0,R,ugm-3,,,,,,
13-01-2011,09:00,74,R,ugm-3,65,R,ugm-3,178,R,ugm-3,,,,2,R,ugm-3,,,,,,
13-01-2011,10:00,60,R,ugm-3,63,R,ugm-3,155,R,ugm-3,,,,2,R,ugm-3,,,,,,
13-01-2011,11:00,50,R,ugm-3,61,R,ugm-3,138,R,ugm-3,,,,6,R,ugm-3,,,,,,
13-01-2011,12:00,11,R,ugm-3,46,R,ugm-3,63,R,ugm-3,,,,18,R,ugm-3,,,,,,
13-01-2011,13:00,8,R,ugm-3,40,R,ugm-3,52,R,ugm-3,,,,22,R,ugm-3,,,,,,
13-01-2011,14:00,21,R,ugm-3,50,R,ugm-3,82,R,ugm-3,,,,18,R,ugm-3,,,,,,
13-01-2011,15:00,31,R,ugm-3,59,R,ugm-3,107,R,ugm-3,,,,6,R,ugm-3,,,,,,
13-01-2011,16:00,15,R,ugm-3,53,R,ugm-3,76,R,ugm-3,,,,12,R,ugm-3,,,,,,
13-01-2011,17:00,10,R,ugm-3,53,R,ugm-3,69,R,ugm-3,,,,18,R,ugm-3,,,,,,
13-01-2011,18:00,9,R,ugm-3,53,R,ugm-3,67,R,ugm-3,,,,18,R,ugm-3,,,,,,
13-01-2011,19:00,6,R,ugm-3,53,R,ugm-3,63,R,ugm-3,,,,22,R,ugm-3,,,,,,
13-01-2011,20:00,5,R,ugm-3,53,R,ugm-3,61,R,ugm-3,,,,22,R,ugm-3,,,,,,
13-01-2011,21:00,16,R,ugm-3,71,R,ugm-3,96,R,ugm-3,,,,4,R,ugm-3,,,,,,
13-01-2011,22:00,21,R,ugm-3,65,R,ugm-3,97,R,ugm-3,,,,4,R,ugm-3,,,,,,
13-01-2011,23:00,10,R,ugm-3,52,R,ugm-3,67,R,ugm-3,,,,12,R,ugm-3,,,,,,
13-01-2011,24:00,5,R,ugm-3,40,R,ugm-3,48,R,ugm-3,,,,16,R,ugm-3,,,,,,
14-01-2011,01:00,3,R,ugm-3,32,R,ugm-3,36,R,ugm-3,,,,16,R,ugm-3,,,,,,
14-01-2011,02:00,1,R,ugm-3,17,R,ugm-3,19,R,ugm-3,,,,36,R,ugm-3,,,,,,
14-01-2011,03:00,6,R,ugm-3,21,R,ugm-3,31,R,ugm-3,,,,32,R,ugm-3,,,,,,
14-01-2011,04:00,5,R,ugm-3,25,R,ugm-3,32,R,ugm-3,,,,24,R,ugm-3,,,,,,
14-01-2011,05:00,9,R,ugm-3,31,R,ugm-3,44,R,ugm-3,,,,16,R,ugm-3,,,,,,
14-01-2011,06:00,8,R,ugm-3,31,R,ugm-3,42,R,ugm-3,,,,22,R,ugm-3,,,,,,
14-01-2011,07:00,14,R,ugm-3,36,R,ugm-3,57,R,ugm-3,,,,20,R,ugm-3,,,,,,
14-01-2011,08:00,5,R,ugm-3,36,R,ugm-3,44,R,ugm-3,,,,38,R,ugm-3,,,,,,
14-01-2011,09:00,5,R,ugm-3,40,R,ugm-3,48,R,ugm-3,,,,44,R,ugm-3,,,,,,
14-01-2011,10:00,10,R,ugm-3,40,R,ugm-3,55,R,ugm-3,,,,46,R,ugm-3,,,,,,
14-01-2011,11:00,10,R,ugm-3,53,R,ugm-3,69,R,ugm-3,,,,28,R,ugm-3,,,,,,
14-01-2011,12:00,6,R,ugm-3,29,R,ugm-3,38,R,ugm-3,,,,52,R,ugm-3,,,,,,
14-01-2011,13:00,6,R,ugm-3,19,R,ugm-3,29,R,ugm-3,,,,64,R,ugm-3,,,,,,
14-01-2011,14:00,14,R,ugm-3,21,R,ugm-3,42,R,ugm-3,,,,64,R,ugm-3,,,,,,
14-01-2011,15:00,4,R,ugm-3,17,R,ugm-3,23,R,ugm-3,,,,68,R,ugm-3,,,,,,
14-01-2011,16:00,5,R,ugm-3,29,R,ugm-3,36,R,ugm-3,,,,58,R,ugm-3,,,,,,
14-01-2011,17:00,4,R,ugm-3,32,R,ugm-3,38,R,ugm-3,,,,50,R,ugm-3,,,,,,
14-01-2011,18:00,3,R,ugm-3,25,R,ugm-3,29,R,ugm-3,,,,56,R,ugm-3,,,,,,
14-01-2011,19:00,1,R,ugm-3,13,R,ugm-3,15,R,ugm-3,,,,62,R,ugm-3,,,,,,
14-01-2011,20:00,1,R,ugm-3,15,R,ugm-3,17,R,ugm-3,,,,56,R,ugm-3,,,,,,
14-01-2011,21:00,3,R,ugm-3,27,R,ugm-3,31,R,ugm-3,,,,42,R,ugm-3,,,,,,
14-01-2011,22:00,4,R,ugm-3,38,R,ugm-3,44,R,ugm-3,,,,26,R,ugm-3,,,,,,
14-01-2011,23:00,3,R,ugm-3,29,R,ugm-3,32,R,ugm-3,,,,30,R,ugm-3,,,,,,
14-01-2011,24:00,4,R,ugm-3,40,R,ugm-3,46,R,ugm-3,,,,22,R,ugm-3,,,,,,
15-01-2011,01:00,3,R,ugm-3,34,R,ugm-3,38,R,ugm-3,,,,24,R,ugm-3,,,,,,
15-01-2011,02:00,1,R,ugm-3,25,R,ugm-3,27,R,ugm-3,,,,32,R,ugm-3,,,,,,
15-01-2011,03:00,1,R,ugm-3,15,R,ugm-3,17,R,ugm-3,,,,44,R,ugm-3,,,,,,
15-01-2011,04:00,1,R,ugm-3,8,R,ugm-3,10,R,ugm-3,,,,54,R,ugm-3,,,,,,